Dewpoint
63 69 72 72 71 71 71 70 68 66 65 62 62 64 65 65 63 62 63 63 61 59 61 64 64 66 66 67 66 64 65 64 62 62 62 63 63 63 64 63 61 61 61
64 68 73 72 71 71 70 69 67 66 65 62 60 62 60 60 60 59 61 61 61 59 61 62 63 63 65 65 63 61 61 61 61 61 63 63 63 62 60 60 60 61 66
61 67 70 73 72 72 71 69 67 65 64 63 59 59 58 59 59 61 62 61 59 59 61 61 60 62 62 64 64 63 62 60 59 61 62 62 58 62 62 62 60 61 64
61 66 67 73 72 71 71 69 67 66 64 62 60 62 62 61 61 61 60 59 60 60 60 61 60 60 61 62 63 63 63 61 60 62 61 56 55 63 61 61 60 60 62
57 64 70 73 73 72 70 68 67 66 65 62 61 60 63 63 65 62 62 60 61 60 60 60 60 59 60 61 61 62 62 61 62 62 59 55 57 58 61 60 60 61 61
57 69 72 73 73 72 71 70 68 67 66 65 62 62 62 65 66 66 64 65 63 61 61 60 60 61 61 61 60 60 61 62 64 59 56 57 54 58 60 61 62 61 62
58 69 71 73 73 72 72 70 69 68 66 64 63 62 62 66 66 66 65 65 63 62 61 61 59 61 62 63 62 62 62 64 61 56 55 56 56 57 58 60 62 62 62
59 64 70 72 72 72 71 71 70 69 67 66 63 61 62 65 66 66 66 65 63 62 63 62 61 61 62 64 64 64 64 64 60 56 54 55 59 60 60 60 61 62 63
60 62 65 68 70 72 72 71 70 70 69 68 66 64 65 65 64 65 66 64 64 63 63 64 63 63 62 62 63 64 66 65 62 59 56 55 61 61 61 61 60 61 62
60 61 62 64 66 68 68 70 70 70 69 68 67 67 67 66 66 66 66 66 65 64 64 63 63 63 63 63 64 66 66 65 62 59 57 56 62 61 61 62 62 61 61
60 61 61 62 65 64 65 67 69 68 68 68 66 66 65 63 60 63 63 65 65 64 64 64 64 64 65 65 65 65 65 62 59 57 56 60 63 60 60 61 62 62 62
59 60 61 62 63 63 62 66 65 65 65 65 64 63 63 58 60 60 61 63 65 66 66 65 65 66 65 63 61 62 63 61 59 57 57 63 63 61 61 61 61 62 63
56 59 61 62 63 63 63 63 63 63 62 61 60 59 59 58 59 60 61 61 62 63 63 63 64 64 62 60 59 58 58 58 57 57 59 63 64 63 63 63 64 63 63
53 57 60 61 63 63 64 64 62 61 61 60 60 59 59 60 60 60 60 61 61 61 61 61 61 61 60 60 59 59 58 59 59 58 59 63 65 65 64 64 65 65 64
51 54 57 60 63 64 63 64 63 61 61 60 61 61 61 61 61 62 62 62 62 61 62 61 60 60 59 59 59 58 58 59 59 59 60 61 64 66 66 65 64 64 64
51 54 55 57 61 63 63 63 63 62 61 61 61 61 61 61 62 62 62 61 61 61 61 60 59 57 56 56 55 56 56 56 56 56 57 58 62 65 66 66 65 65 65
48 49 50 53 57 61 62 63 62 61 61 61 61 60 60 61 61 61 61 60 59 58 55 53 52 52 52 53 53 54 54 55 55 55 54 55 57 60 64 66 67 66 65
48 51 52 51 54 58 61 61 61 60 60 59 60 60 58 58 58 53 51 47 47 48 47 46 45 45 46 45 45 46 47 44 45 51 51 52 54 55 60 64 64 65 65
49 52 53 53 55 58 60 59 58 57 55 50 47 45 44 44 44 45 44 43 42 45 45 44 43 44 42 42 42 38 40 45 40 42 44 42 42 44 46 54 60 62 62
51 53 55 57 57 58 57 57 49 46 45 45 44 41 40 40 40 42 42 41 41 42 42 39 37 37 39 40 34 38 38 37 40 42 39 36 40 40 42 44 45 52 60
53 53 55 56 57 57 57 50 48 47 45 43 41 37 36 36 37 37 38 37 37 38 36 33 34 34 36 36 36 33 36 37 37 34 34 39 34 37 35 38 44 40 43
51 53 55 54 52 51 51 49 48 45 44 43 41 38 33 30 30 28 31 32 31 35 33 32 32 35 35 35 33 33 32 29 32 34 36 31 33 32 32 34 28 27 34
48 48 48 49 49 49 48 47 46 46 43 41 40 38 33 27 26 27 28 29 29 32 33 32 31 32 35 34 32 30 29 30 28 33 30 32 26 31 27 28 27 28 27
47 48 47 47 47 47 46 45 41 39 39 39 38 36 32 27 24 25 26 28 28 31 29 30 29 31 33 33 32 29 29 28 27 26 30 27 26 25 26 29 27 29 27
47 45 44 42 42 42 41 40 40 39 38 37 34 30 26 26 24 24 25 26 26 29 27 27 27 29 33 31 30 30 27 27 25 25 24 23 24 25 30 27 28 27 25
47 45 43 41 41 41 40 39 38 37 35 32 29 27 25 26 27 23 24 23 24 25 25 26 25 27 28 29 29 27 26 23 22 23 23 22 23 23 27 24 26 21 23
Lifted_Index
-1 -2 -4 -4 -4 -3 -3 -2 -1 0 2 3 4 3 3 3 4 5 5 5 6 6 6 5 4 3 3 3 3 4 5 5 6 6 6 6 6 5 5 5 5 5 4
-2 -3 -4 -4 -4 -4 -3 -2 -1 0 2 3 4 4 4 4 4 5 5 5 6 6 6 5 5 4 4 3 4 4 5 6 6 6 6 6 6 6 5 5 5 4 4
-2 -3 -4 -5 -5 -4 -3 -2 -1 0 1 3 4 4 4 4 4 4 5 5 5 6 6 6 6 5 5 4 4 5 5 6 6 6 6 7 6 6 5 5 4 4 3
-2 -3 -4 -5 -5 -5 -4 -2 -1 -0 1 2 3 4 4 3 3 4 4 5 5 5 5 6 6 6 5 5 5 5 5 5 6 6 6 7 7 5 4 4 4 4 4
-2 -3 -5 -5 -5 -5 -4 -2 -1 -0 1 2 3 3 3 2 2 2 3 4 4 5 5 5 6 6 5 5 5 5 5 5 5 6 6 7 7 5 5 4 4 4 4
-2 -4 -5 -6 -5 -5 -4 -3 -2 -1 0 1 2 3 2 1 1 1 2 3 4 4 5 5 5 5 5 5 5 6 5 5 5 6 7 7 7 6 5 5 5 5 4
-3 -4 -6 -6 -5 -5 -4 -3 -2 -1 -0 1 2 2 2 1 1 1 1 2 3 4 4 4 5 4 4 4 4 5 5 5 6 7 7 7 7 6 6 5 5 5 4
-3 -4 -5 -5 -5 -5 -4 -3 -2 -1 -1 0 2 2 2 2 1 1 1 2 3 3 3 3 4 4 4 4 3 4 4 5 6 7 7 7 7 6 6 6 5 5 5
-3 -3 -4 -4 -5 -4 -4 -3 -2 -2 -1 -0 1 2 2 2 2 1 1 2 2 2 3 3 3 4 4 4 4 4 4 4 5 6 7 7 6 6 6 6 6 5 5
-3 -3 -3 -4 -4 -4 -3 -3 -2 -2 -1 -0 1 1 2 2 2 2 2 2 2 2 3 3 3 4 4 4 4 4 4 4 5 6 6 6 6 6 5 5 5 6 6
-3 -3 -3 -3 -3 -3 -2 -2 -2 -1 -1 0 1 1 2 3 3 3 3 3 3 3 3 3 3 3 3 4 4 4 4 4 5 5 5 5 5 5 5 5 5 5 5
-3 -3 -3 -3 -3 -3 -2 -2 -1 -1 -0 0 1 1 2 3 3 3 3 3 3 2 2 3 3 3 3 3 4 4 4 4 4 4 5 5 5 5 5 5 5 5 5
-2 -3 -3 -3 -3 -3 -2 -2 -1 -1 0 1 1 2 2 2 2 2 2 2 2 2 2 2 2 2 3 3 3 3 3 4 4 4 4 4 4 4 4 4 4 4 4
-1 -2 -2 -3 -3 -3 -2 -2 -1 -1 -0 0 1 1 2 2 2 2 1 2 2 2 2 2 2 2 3 3 3 3 3 3 3 3 3 3 3 2 3 3 3 3 3
-1 -1 -2 -2 -3 -3 -2 -2 -1 -1 -0 0 0 1 1 1 1 1 1 1 1 2 2 2 3 3 3 3 3 3 3 3 3 3 3 3 2 2 2 2 2 2 2
-0 -0 -1 -1 -2 -2 -2 -2 -1 -1 -1 -0 -0 0 1 1 1 1 1 2 2 3 3 4 4 5 5 5 5 5 4 4 4 4 4 4 3 2 2 1 1 2 2
1 0 0 0 -1 -1 -2 -2 -1 -1 -1 -0 -0 0 0 1 1 1 2 4 5 5 6 7 7 8 8 8 7 7 6 6 6 6 6 5 5 4 2 2 1 1 1
2 2 2 1 0 -1 -1 -1 -1 -0 -0 -0 0 1 1 2 3 4 6 7 8 9 9 9 10 10 10 10 10 10 9 9 9 8 7 7 6 5 4 3 3 2 2
2 2 2 1 1 -0 -1 -1 -0 0 1 1 1 2 4 6 7 8 9 10 11 11 11 11 12 12 12 12 12 12 12 12 11 10 9 8 7 7 7 7 6 5 4
2 2 1 1 0 -0 -0 0 1 1 2 3 4 6 8 10 11 11 11 12 12 12 12 13 13 14 14 14 14 14 14 13 13 12 11 10 10 11 10 10 9 8 7
2 1 1 1 0 1 1 2 2 3 4 5 8 10 11 12 12 12 12 12 13 13 14 15 15 15 15 16 15 15 15 15 14 14 13 13 13 13 12 12 12 11 11
2 2 1 1 2 2 3 4 5 6 7 9 10 11 12 12 12 12 13 13 14 14 15 15 16 15 16 16 16 16 15 15 16 16 15 15 15 14 14 14 14 14 14
4 4 3 3 4 4 5 6 7 8 9 10 11 11 11 12 12 12 13 14 15 15 15 16 16 16 16 17 17 17 17 17 17 17 16 17 17 16 16 16 16 15 15
6 6 6 6 6 7 7 8 9 9 10 10 11 11 11 11 12 12 12 13 14 15 16 17 18 18 18 18 18 18 18 18 18 18 17 18 18 18 18 17 17 16 16
7 7 8 8 8 9 9 10 10 10 10 10 11 11 11 11 11 11 12 13 14 16 17 18 19 19 19 19 19 19 19 19 19 18 18 18 19 19 18 18 17 17 17
8 8 8 9 9 9 10 10 10 10 10 10 10 10 10 10 10 11 12 13 15 16 18 19 20 20 20 20 20 20 19 19 19 19 18 18 19 19 19 18 18 18 18